Santa Rosa, CA

1:49 PM PST on November 18, 2017 (GMT -0800)
Sonoma County

Weather History for KSTS - November, 2014

Change the Weather History Date:

Sunday, November 16, 2014

  Actual Average Record
Temperature  
Mean Temperature 53 °F 52 °F  
Max Temperature 65 °F 64 °F 77 °F (2008)
Min Temperature 40 °F 40 °F 31 °F (2009)
Degree Days  
Heating Degree Days 12    
Month to date heating degree days 111  
Since 1 July heating degree days 198  
Cooling Degree Days 0    
Month to date cooling degree days 0  
Year to date cooling degree days 499  
Growing Degree Days 3 (Base 50)    
Moisture  
Dew Point 41 °F    
Average Humidity 69    
Maximum Humidity 100    
Minimum Humidity 37    
Precipitation  
Precipitation 0.00 in 0.14 in 0.90 in (2012)
Month to date precipitation 0.10 2.31  
Year to date precipitation 14.01 26.87  
Since 1 July precipitation 1.44  
Sea Level Pressure  
Sea Level Pressure 30.20 in    
Wind  
Wind Speed 3 mph (WNW)    
Max Wind Speed 10 mph    
Max Gust Speed 12 mph    
Visibility 10 miles    
Events      
T = Trace of Precipitation, MM = Missing Value Source: NWS Daily Summary

Daily Weather History Graph

Daily Weather History Graph

Search for Another Location

Airport or City:

Trip Planner

Search our weather history database for the weather conditions in past years. The results will help you decide how hot, cold, wet, or windy it might be!

Date:

Astronomy

Nov. 16, 2014 Rise Set
Actual Time 6:54 AM PST 4:57 PM PST
Civil Twilight 6:25 AM PST 5:25 PM PST
Nautical Twilight 5:53 AM PST 5:57 PM PST
Astronomical Twilight 5:22 AM PST 6:29 PM PST
Moon 1:10 AM PST (11/16) 1:49 PM PST (11/16)
Length of Visible Light 11h 00m
Length of Day
10h 03m
Waning Crescent, 30% of the Moon is Illuminated
Nov 16
Waning Crescent
Nov 22
New
Nov 29
First Quarter
Dec 6
Full
Dec 14
Last Quarter

Hourly Weather History & Observations

Time (PST) Temp. Windchill Dew Point Humidity Pressure Visibility Wind Dir Wind Speed Gust Speed Precip Events Conditions
12:53 AM 46.9 °F - 45.0 °F 93% 30.18 in 10.0 mi NNW 5.8 mph - N/A   Clear
1:53 AM 46.0 °F - 45.0 °F 96% 30.18 in 10.0 mi Calm Calm - N/A   Clear
2:53 AM 45.0 °F 43.5 °F 44.1 °F 97% 30.19 in 10.0 mi NNE 3.5 mph - N/A   Clear
3:53 AM 45.0 °F 40.6 °F 44.1 °F 97% 30.17 in 10.0 mi North 8.1 mph - N/A   Clear
4:53 AM 43.0 °F 40.3 °F 42.1 °F 97% 30.17 in 10.0 mi West 4.6 mph - N/A   Clear
5:53 AM 42.1 °F - 41.0 °F 96% 30.18 in 10.0 mi Calm Calm - N/A   Clear
6:53 AM 42.1 °F 38.4 °F 41.0 °F 96% 30.19 in 10.0 mi WNW 5.8 mph - N/A   Scattered Clouds
7:53 AM 42.1 °F 40.2 °F 42.1 °F 100% 30.20 in 10.0 mi WNW 3.5 mph - N/A   Mostly Cloudy
8:53 AM 48.9 °F - 46.9 °F 93% 30.21 in 10.0 mi NW 4.6 mph - N/A   Mostly Cloudy
9:53 AM 52.0 °F - 48.0 °F 86% 30.23 in 10.0 mi West 3.5 mph - N/A   Mostly Cloudy
10:53 AM 57.0 °F - 48.0 °F 72% 30.22 in 10.0 mi Calm Calm - N/A   Mostly Cloudy
11:53 AM 59.0 °F - 46.9 °F 64% 30.22 in 10.0 mi Calm Calm - N/A   Mostly Cloudy
12:53 PM 63.0 °F - 42.1 °F 46% 30.20 in 10.0 mi South 4.6 mph - N/A   Mostly Cloudy
1:53 PM 64.0 °F - 37.9 °F 38% 30.18 in 10.0 mi Calm Calm - N/A   Mostly Cloudy
2:53 PM 64.0 °F - 37.9 °F 38% 30.18 in 10.0 mi SW 3.5 mph - N/A   Mostly Cloudy
3:53 PM 63.0 °F - 39.9 °F 43% 30.19 in 10.0 mi Calm Calm - N/A   Overcast
4:53 PM 59.0 °F - 36.0 °F 42% 30.19 in 10.0 mi SSE 5.8 mph - N/A   Overcast
5:53 PM 55.9 °F - 35.1 °F 45% 30.20 in 10.0 mi SE 4.6 mph - N/A   Clear
6:53 PM 55.0 °F - 33.1 °F 43% 30.22 in 10.0 mi SSE 3.5 mph - N/A   Clear
7:53 PM 53.1 °F - 32.0 °F 45% 30.22 in 10.0 mi Calm Calm - N/A   Clear
8:53 PM 46.9 °F - 37.9 °F 71% 30.23 in 10.0 mi Calm Calm - N/A   Clear
9:53 PM 45.0 °F - 37.9 °F 76% 30.23 in 10.0 mi Calm Calm - N/A   Clear
10:53 PM 45.0 °F 43.5 °F 37.9 °F 76% 30.24 in 10.0 mi North 3.5 mph - N/A   Clear
11:53 PM 39.9 °F - 37.0 °F 89% 30.26 in 10.0 mi Calm Calm - N/A   Clear